Tracking 19415 objects as of 15-Dec-2018
HD Live streaming from Space Station
objects crossing your sky now

DASH 1

Track DASH 1 now!
10-day predictions
DASH 1 is classified as:


NORAD ID: 589
Int'l Code: 1963-014D
Perigee: 3,539.6 km
Apogee: 3,758.4 km
Inclination: 87.3 °
Period: 166.4 minutes
Semi major axis: 10019 km
RCS: 1.0728 m2 (large)
Launch date: May 9, 1963
Source: United States (US)
Launch site: AIR FORCE WESTERN TEST RANGE (AFWTR)
aabbcc
Your satellite tracking list
Your tracking list is empty




NASA's NSSDC Master Catalog

Two Line Element Set (TLE):
1   589U 63014D   18347.29517791  .00000080  00000-0  36061-1 0  9995
2   589  87.3240  93.0219 0109209 304.1035  54.9497  8.65567978756769
Source of the keplerian elements: AFSPC